Tracking 19709 objects as of 19-Jun-2019
HD Live streaming from Space Station
objects crossing your sky now

OBJECT C

Track OBJECT C now!
10-day predictions


NORAD ID: 43934
Int'l Code: 2019-003C
Perigee: 494.8 km
Apogee: 520.5 km
Inclination: 97.3 °
Period: 94.6 minutes
Semi major axis: 6878 km
RCS: Unknown
Launch date: January 18, 2019
Source: Japan (JPN)
Launch site: KAGOSHIMA SPACE CENTER UNIVERSITY OF TOKYO (KSCUT)
aabbcc
Your satellite tracking list
Your tracking list is empty




NASA's NSSDC Master Catalog

Two Line Element Set (TLE):
1 43934U 19003C   19169.86067691  .00000252  00000-0  14026-4 0  9991
2 43934  97.2816 227.4635 0018689  77.9183  10.0188 15.21773104 23086
Source of the keplerian elements: AFSPC